Regional Weather Roundup
Issued by NWS

Home | Current Version | Previous Version | Graphics & Text | Print | Product List | Glossary On
Versions: 1 2 3 4 5 6 7 8 9 10 11 12 13 14 15 16 17 18 19 20 21 22 23 24 25 26 27 28 29 30 31 32 33 34 35 36 37 38 39 40 41 42 43 44 45 46 47 48 49 50
000
ASUS43 KLSX 232159
RWRMO

WEATHER SUMMARY FOR MISSOURI
NATIONAL WEATHER SERVICE SPRINGFIELD MO
500 PM CDT SUN JUL 23 2017

NOTE: "FAIR" INDICATES FEW OR NO CLOUDS BELOW 12,000 FEET WITH NO
       SIGNIFICANT WEATHER AND/OR OBSTRUCTIONS TO VISIBILITY.
       CURRENT SKY AND/OR WEATHER CONDITIONS ARE NOT AVAILABLE FOR
       CHILLICOTHE AND FARMINGTON.

MOZ001>031-035>038-043-044-053-054-232300-
...NORTHERN AND WESTERN MISSOURI...

CITY           SKY/WX    TMP DP  RH WIND       PRES   REMARKS
KANSAS CTY INT PTSUNNY   92  73  53 W7        29.90F HX 100
KANSAS C DTWN  FAIR      92  75  57 VRB6      29.87F HX 103
LEE`S SUMMIT   FAIR      92  74  55 VRB3      29.90F HX 101
ST JOSEPH      FAIR      90  77  65 N9        29.89F HX 103
CHILLICOTHE      N/A     93  74  53 VRB5      29.88F HX 103
KIRKSVILLE     PTSUNNY   93  69  45 W5        29.87F HX  98

$$
MOZ066>068-077>081-088>096-101>105-232300-
...SOUTHWEST MISSOURI...

CITY           SKY/WX    TMP DP  RH WIND       PRES   REMARKS
SPRINGFIELD    FAIR      90  67  46 E6        29.93R HX  93
JOPLIN         FAIR      95  66  38 E3        29.91S HX  98
BRANSON        CLOUDY    88  63  42 NW6       29.94R

$$
MOZ032>034-039>042-045>050-055>058-069>072-232300-
...CENTRAL MISSOURI...

CITY           SKY/WX    TMP DP  RH WIND       PRES   REMARKS
COLUMBIA       FAIR      90  67  46 W7        29.88F HX  93
JEFFERSON CITY FAIR      91  72  53 N6        29.86F HX  98
ROLLA          FAIR      87  70  56 VRB5      29.90S HX  92
SEDALIA        FAIR      90  77  65 NW7       29.90F HX 103
OSAGE BEACH    FAIR      92  64  39 SW7       29.90S HX  93

$$
MOZ051-052-059>065-232300-
...EAST CENTRAL MISSOURI...

CITY           SKY/WX    TMP DP  RH WIND       PRES   REMARKS
ST LOUIS INTL  FAIR      93  64  38 SW7       29.85F HX  94
SPIRIT OF STL  FAIR      90  68  48 SW5       29.84F HX  94
ST CHARLES     FAIR      91  69  48 SW8       29.83F HX  96

$$
MOZ072>076-082>087-097>100-106>115-232300-
...SOUTH CENTRAL AND SOUTHEAST MISSOURI...

CITY           SKY/WX    TMP DP  RH WIND       PRES   REMARKS
CAPE GIRARDEAU FAIR      92  67  43 W5        29.83F HX  95
FARMINGTON     FAIR      91  67  44 CALM      29.89S HX  94
POPLAR BLUFF   FAIR      92  74  55 E3        29.84S HX 101
WEST PLAINS    PTSUNNY   88  66  48 N7        29.93R HX  90

$$



USA.gov is the U.S. government's official web portal to all federal, state and local government web resources and services.